Regional Weather Roundup
Issued by NWS

Home | Current Version | Previous Version | Text Only | Print | Product List | Glossary On
Versions: 1 2 3 4 5 6 7 8 9 10 11 12 13 14 15 16 17 18 19 20 21 22 23 24 25 26 27 28 29 30 31 32 33 34 35 36 37 38 39 40 41 42 43 44 45 46 47 48 49 50
000
ASUS44 KJAN 031810
RWRMS

MISSISSIPPI HOURLY WEATHER ROUNDUP
NATIONAL WEATHER SERVICE JACKSON MS
100 PM CDT SUN MAY 03 2015

NOTE: "FAIR: INDICATES FEW OR NO CLOUDS BELOW 12,000 FEET WITH NO
SIGNIFICANT WEATHER AND/OR OBSTRUCTIONS TO VISIBILITY.

MSZ001>002-007>008-010>013-018>021-025>028-034>036-031900-
NORTHWEST MISSISSIPPI

CITY           SKY/WX    TMP DP  RH WIND       PRES   REMARKS
CLARKSDALE     FAIR      81  54  39 CALM      30.09F
CLEVELAND      FAIR      82  53  37 S7        30.08F
GREENWOOD      SUNNY     81  51  35 VRB6      30.10F
6HR MIN TEMP:  55; 6HR MAX TEMP:  81;

GREENVILLE     PTSUNNY   80  56  43 SW6       30.08F
6HR MIN TEMP:  57; 6HR MAX TEMP:  81;

OLIVE BRANCH   PTSUNNY   77  48  36 S7        30.11F
OXFORD         LGT RAIN  77  45  31 W6        30.13F
TUNICA         PTCLDY    79  48  34 SW9       30.10F
$$

MSZ003>006-009-014>017-022>024-029>033-037>039-031900-
NORTHEAST MISSISSIPPI

CITY           SKY/WX    TMP DP  RH WIND       PRES   REMARKS
COLUMBUS AFB   SUNNY     82  49  31 SW12      30.12F
6HR MIN TEMP:  52; 6HR MAX TEMP:  83;

CORINTH        FAIR      77  50  38 SW8G15    30.12F
GOLDN TRIANGLE MOSUNNY   79  54  41 S12       30.12F
STARKVILLE     FAIR      79  50  36 S3        30.12F
TUPELO         MOSUNNY   80  47  31 SW9       30.12F
6HR MIN TEMP:  53; 6HR MAX TEMP:  80;

$$

MSZ040-058-031900-
CENTRAL MISSISSIPPI

CITY           SKY/WX    TMP DP  RH WIND       PRES   REMARKS
JACKSON INTL   PTSUNNY   81  53  37 S8        30.11F
6HR MIN TEMP:  57; 6HR MAX TEMP:  81;

JACKSON HAWKNS MOSUNNY   80  55  42 SW6       30.11F
6HR MIN TEMP:  58; 6HR MAX TEMP:  81;

MERIDIAN KEY   SUNNY     79  46  31 CALM      30.13F
6HR MIN TEMP:  50; 6HR MAX TEMP:  81;

MERIDIAN NAS   PTSUNNY   79  48  33 VRB5      30.14F
6HR MIN TEMP:  50; 6HR MAX TEMP:  80;

RAYMOND        CLOUDY    79  73  83 S6        30.10F
VICKSBURG      MOSUNNY   81  60  48 S9G17     30.10F
6HR MIN TEMP:  57; 6HR MAX TEMP:  81;

$$

MSZ059>079-031900-
SOUTH MISSISSIPPI

CITY           SKY/WX    TMP DP  RH WIND       PRES   REMARKS
BROOKHAVEN     FAIR      79  57  47 CALM      30.13F
HATTIESBURG    SUNNY     80  48  32 SE8       30.13F
6HR MIN TEMP:  52; 6HR MAX TEMP:  81;

MCCOMB         CLOUDY    79  58  48 MISG      30.12F
6HR MIN TEMP:  60; 6HR MAX TEMP:  79;

NATCHEZ        MOSUNNY   79  57  47 CALM      30.12F
6HR MIN TEMP:  59; 6HR MAX TEMP:  81;

PINE BELT      SUNNY     79   9   7 SE7       30.15F
6HR MIN TEMP:  54; 6HR MAX TEMP:  81;

$$

MSZ080>082-031900-
COASTAL MISSISSIPPI

CITY           SKY/WX    TMP DP  RH WIND       PRES   REMARKS
BAY ST LOUIS   MOSUNNY   77  45  31 MISG      30.14F
BILOXI         SUNNY     79  55  44 S10       30.14F
PASCAGOULA     SUNNY     77  55  46 S9        30.15S
6HR MIN TEMP:  53; 6HR MAX TEMP:  78;

GULFPORT       SUNNY     77  53  43 SE10      30.14F
6HR MIN TEMP:  58; 6HR MAX TEMP:  78;

$$



USA.gov is the U.S. government's official web portal to all federal, state and local government web resources and services.